DateTimeUTC,F1_A11,F1_S11,BsB_S11,BsG_S11,BsR_S11,BbsB_S11,BbsG_S11,BbsR_S11,BaB_A11,BaG_A11,BaR_A11,Tu_S11,T_S11,Uu_S11,U_S11,P_S11,T1_A11
2021-04-19T23:00:00Z,00000200,21000000,,,,,,,-000.04,-000.31,-000.25,17.0,24.6,,00.0,0653.8,31.0
2021-04-19T23:01:00Z,00000200,21000000,,,,,,,-000.00,-000.23,-000.23,17.0,24.6,,00.0,0653.8,31.0
2021-04-19T23:02:00Z,00000200,21000000,,,,,,,-000.64,-000.10,-000.18,16.9,24.6,,00.0,0653.8,31.0
2021-04-19T23:03:00Z,00000200,61000000,,,,,,,0000.59,0000.12,0000.43,16.9,24.5,,00.0,0653.8,31.0
2021-04-19T23:04:00Z,00000200,41000000,0002.26,0001.89,0001.12,-000.00,0000.30,0000.14,0000.99,0001.14,0000.56,16.9,24.3,,00.0,0654.7,31.0
2021-04-19T23:05:00Z,00000200,01000000,0002.79,0001.61,0001.28,0000.74,0000.23,-000.04,0000.85,0000.46,0000.55,16.9,24.2,,00.0,0654.8,31.0
2021-04-19T23:06:00Z,00000200,01000000,0002.86,0001.94,0001.11,0000.30,0000.22,0000.20,0000.94,0000.71,0000.69,16.8,24.2,,00.0,0654.8,31.0
2021-04-19T23:07:00Z,00000200,01000000,0002.59,0001.75,0001.15,0000.16,0000.18,0000.07,0000.96,0001.17,0000.79,16.8,24.2,,00.0,0654.8,31.0
2021-04-19T23:08:00Z,00000200,01000000,0002.49,0002.08,0001.11,0000.54,0000.27,0000.02,0000.94,0000.88,0000.70,16.9,24.2,,00.0,0654.8,31.0
2021-04-19T23:09:00Z,00000200,01000000,0002.34,0001.78,0001.26,0000.50,0000.24,0000.10,0001.01,0000.77,0000.59,17.0,24.2,,00.0,0654.8,31.0
2021-04-19T23:10:00Z,00000200,01000000,0002.81,0001.90,0001.05,0000.74,0000.32,0000.30,0000.88,0000.86,0000.78,17.1,24.2,,00.0,0654.8,31.0
2021-04-19T23:11:00Z,00000200,01000000,0002.21,0001.77,0001.22,0000.53,0000.43,0000.03,0000.95,0000.85,0000.74,17.2,24.3,,00.0,0654.8,31.1
2021-04-19T23:12:00Z,00000200,01000000,0002.54,0001.95,0001.33,0000.45,0000.27,0000.32,0000.74,0001.00,0000.50,17.3,24.3,,00.0,0654.8,31.1
2021-04-19T23:13:00Z,00000200,01000000,0002.36,0002.02,0001.09,0000.07,0000.08,0000.37,0001.11,0000.94,0000.87,17.3,24.3,,00.0,0654.8,31.0
2021-04-19T23:14:00Z,00000200,01000000,0002.65,0001.97,0000.95,0000.52,0000.25,-000.04,0000.93,0000.45,0000.31,17.3,24.3,,00.0,0654.8,31.0
2021-04-19T23:15:00Z,00000200,01000000,0002.49,0001.62,0001.40,0000.71,0000.18,0000.05,0000.70,0001.00,0000.65,17.2,24.3,,00.0,0654.8,31.0
2021-04-19T23:16:00Z,00000200,01000000,0002.59,0001.84,0001.23,-000.01,0000.58,0000.07,0001.08,0000.65,0001.08,17.1,24.3,,00.0,0654.8,31.0
2021-04-19T23:17:00Z,00000200,01000000,0003.16,0001.55,0001.37,0000.73,0000.28,0000.35,0000.51,0000.93,0000.57,17.1,24.2,,00.0,0654.8,31.0
2021-04-19T23:18:00Z,00000200,01000000,0002.50,0001.58,0001.33,0000.41,0000.27,0000.03,0001.25,0000.81,0000.26,17.0,24.2,,00.0,0654.8,31.0
2021-04-19T23:19:00Z,00000200,01000000,0002.76,0001.56,0001.56,0000.61,0000.23,0000.36,0000.74,0001.07,0000.94,16.9,24.2,,00.0,0654.8,31.0
2021-04-19T23:20:00Z,00000200,01000000,0002.78,0001.84,0001.31,-000.17,0000.28,0000.04,0001.14,0000.42,0000.51,16.9,24.1,,00.0,0654.8,31.0
2021-04-19T23:21:00Z,00000200,01000000,0002.69,0001.62,0001.26,-000.01,0000.57,0000.20,0000.84,0000.92,0000.84,16.8,24.1,,00.0,0654.8,31.0
2021-04-19T23:22:00Z,00000200,01000000,0002.65,0001.94,0001.10,0000.46,0000.42,0000.15,0001.38,0001.31,0000.97,16.8,24.1,,00.0,0654.8,31.0
2021-04-19T23:23:00Z,00000200,01000000,0002.82,0001.77,0000.96,0000.35,0000.44,0000.19,0001.07,0001.14,0000.83,16.9,24.1,,00.0,0654.8,31.0
2021-04-19T23:24:00Z,00000200,01000000,0001.95,0001.64,0000.95,0000.62,0000.39,-000.19,0001.11,0000.99,0001.20,17.0,24.1,,00.0,0654.8,31.0
2021-04-19T23:25:00Z,00000200,01000000,0002.99,0001.57,0001.22,0000.30,0000.35,0000.28,0001.07,0001.07,0000.36,17.1,24.2,,00.0,0654.8,31.0
2021-04-19T23:26:00Z,00000200,01000000,0002.43,0001.64,0001.09,0000.40,0000.14,0000.04,0001.21,0001.02,0000.97,17.2,24.2,,00.0,0654.8,31.0
2021-04-19T23:27:00Z,00000200,01000000,0002.99,0001.72,0001.20,0000.52,0000.39,0000.01,0000.94,0001.05,0000.86,17.3,24.2,,00.0,0654.8,31.0
2021-04-19T23:28:00Z,00000200,01000000,0002.54,0001.58,0001.31,0000.69,0000.23,0000.28,0000.90,0000.87,0000.47,17.3,24.2,,00.0,0654.9,31.0
2021-04-19T23:29:00Z,00000200,01000000,0002.57,0001.56,0001.20,0000.30,-000.02,0000.30,0000.64,0000.55,0000.54,17.3,24.2,,00.0,0654.8,31.0
2021-04-19T23:30:00Z,00000200,01000000,0002.90,0001.76,0001.17,0000.81,0000.42,0000.35,0000.98,0000.73,0000.64,17.2,24.2,,00.0,0654.9,31.0
2021-04-19T23:31:00Z,00000200,01000000,0003.42,0001.50,0001.08,0000.65,0000.23,0000.25,0000.58,0001.00,0000.61,17.1,24.2,,00.0,0654.9,31.0
2021-04-19T23:32:00Z,00000200,01000000,0002.39,0001.54,0001.24,0000.19,0000.56,0000.31,0000.88,0000.43,0000.49,17.0,24.2,,00.0,0654.9,31.0
2021-04-19T23:33:00Z,00000200,01000000,0003.09,0001.66,0001.02,0000.59,0000.51,0000.13,0000.95,0000.66,0000.70,16.9,24.1,,00.0,0654.9,31.0
2021-04-19T23:34:00Z,00000200,01000000,0002.82,0001.56,0001.05,0000.46,0000.22,0000.00,0000.66,0001.07,0000.44,16.9,24.1,,00.0,0654.9,31.0
2021-04-19T23:35:00Z,00000200,01000000,0001.95,0001.93,0001.23,0000.41,0000.12,0000.16,0001.11,0000.25,0000.46,16.8,24.1,,00.0,0654.9,31.0
2021-04-19T23:36:00Z,00000200,01000000,0002.39,0001.77,0000.90,0000.45,0000.15,-000.15,0001.06,0001.08,0000.93,16.8,24.0,,00.0,0654.9,31.0
2021-04-19T23:37:00Z,00000200,01000000,0002.22,0001.47,0001.39,0000.73,0000.42,0000.22,0000.85,0000.77,0000.82,16.8,24.0,,00.0,0654.9,31.0
2021-04-19T23:38:00Z,00000200,01000000,0003.24,0001.91,0001.02,0000.42,0000.40,-000.02,0001.21,0000.97,0000.85,16.8,24.0,,00.0,0654.9,31.0
2021-04-19T23:39:00Z,00000200,01000000,0003.00,0001.53,0001.35,0000.65,0000.05,0000.30,0000.64,0001.19,0000.46,17.0,24.0,,00.0,0654.9,31.0
2021-04-19T23:40:00Z,00000200,01000000,0003.28,0001.57,0001.19,0000.38,0000.37,0000.25,0001.05,0001.04,0000.89,17.0,24.1,,00.0,0654.9,31.0
2021-04-19T23:41:00Z,00000200,01000000,0002.70,0001.97,0001.46,0000.45,0000.36,0000.33,0001.22,0000.68,0000.98,17.1,24.1,,00.0,0654.9,31.0
2021-04-19T23:42:00Z,00000200,01000000,0003.29,0001.64,0000.89,0000.24,0000.43,-000.05,0000.95,0000.96,0000.49,17.2,24.1,,00.0,0654.9,31.0
2021-04-19T23:43:00Z,00000200,01000000,0002.66,0001.61,0001.30,0000.51,0000.11,0000.22,0000.59,0000.61,0000.66,17.2,24.1,,00.0,0654.9,31.0
2021-04-19T23:44:00Z,00000200,01000000,0002.57,0001.94,0001.07,0000.58,0000.10,0000.32,0000.70,0000.76,0000.47,17.1,24.1,,00.0,0654.9,31.0
2021-04-19T23:45:00Z,00000200,01000000,0002.62,0001.50,0001.31,0000.56,0000.30,0000.41,0000.83,0000.74,0000.20,17.0,24.1,,00.0,0654.9,31.0
2021-04-19T23:46:00Z,00000200,01000000,0002.32,0001.80,0001.22,0000.33,0000.46,0000.27,0000.87,0000.68,0000.78,17.0,24.1,,00.0,0654.9,31.0
2021-04-19T23:47:00Z,00000200,01000000,0002.89,0001.63,0001.17,0000.80,0000.38,0000.10,0001.03,0001.21,0000.65,16.9,24.1,,00.0,0654.9,31.0
2021-04-19T23:48:00Z,00000200,01000000,0003.38,0001.85,0001.17,0000.49,0000.44,0000.37,0001.01,0000.56,0000.76,16.8,24.0,,00.0,0654.9,31.0
2021-04-19T23:49:00Z,00000200,01000000,0003.14,0001.80,0001.56,0000.79,0000.50,0000.05,0000.88,0001.07,0000.93,16.8,24.0,,00.0,0654.9,31.0
2021-04-19T23:50:00Z,00000200,01000000,0002.79,0001.56,0001.05,0000.53,0000.25,0000.29,0001.06,0001.05,0000.51,16.7,24.0,,00.0,0654.9,31.0
2021-04-19T23:51:00Z,00000200,01000000,0002.59,0001.85,0001.36,0000.33,0000.24,0000.23,0001.31,0000.73,0000.87,16.6,23.9,,00.0,0654.9,31.0
2021-04-19T23:52:00Z,00000200,01000000,0002.76,0001.79,0000.88,0000.27,0000.22,-000.31,0001.10,0001.07,0000.86,16.6,23.9,,00.0,0654.9,30.9
2021-04-19T23:53:00Z,00000200,01000000,0002.00,0001.53,0001.37,0000.01,0000.27,0000.02,0000.57,0000.99,0000.75,16.7,23.9,,00.0,0654.9,31.0
2021-04-19T23:54:00Z,00000200,01000000,0003.01,0001.67,0001.33,0000.43,0000.23,0000.17,0001.19,0001.04,0000.49,16.8,23.9,,00.0,0654.9,31.0
2021-04-19T23:55:00Z,00000200,01000000,0002.77,0001.62,0001.14,0000.51,0000.61,0000.14,0001.23,0000.90,0001.15,16.9,23.9,,00.0,0654.9,31.0
2021-04-19T23:56:00Z,00000200,01000000,0002.97,0001.70,0001.33,-000.09,0000.27,0000.29,0000.81,0001.08,0000.81,17.0,24.0,,00.0,0654.9,31.0
2021-04-19T23:57:00Z,00000200,41000000,,,,,,,0001.52,0001.28,0000.98,17.1,24.1,,00.0,0654.9,31.0
2021-04-19T23:58:00Z,00000200,61000000,,,,,,,-000.53,-000.29,-000.40,16.8,24.2,,00.0,0654.0,31.0
2021-04-19T23:59:00Z,00000200,21000000,,,,,,,-000.23,-000.37,-000.21,16.8,24.3,,00.0,0654.0,31.0
